Temp
25 26 26 26 26 26 25 25 25 25 25 25 25 25 25 25 25 25 24 24 24 24 24 24 24 24 24 24 24 24 24 24 24 24 24 24 24 24 25 25 25 25
25 25 26 26 26 26 26 26 26 26 26 26 26 25 25 25 25 25 25 24 24 24 24 24 24 24 24 24 24 24 24 24 24 24 24 24 24 24 24 25 25 25
25 25 25 25 25 26 26 26 26 26 26 26 25 25 25 25 25 25 25 24 24 24 24 24 24 24 24 24 24 24 24 24 24 24 24 24 24 24 24 25 25 25
25 25 25 25 25 25 25 25 25 25 26 25 25 25 25 25 25 25 25 25 24 24 24 24 24 24 24 24 24 24 24 24 24 24 24 24 24 24 24 25 25 25
25 25 25 25 25 25 25 25 25 25 26 25 25 25 25 25 25 25 25 25 25 25 25 24 24 24 24 24 24 24 24 24 24 24 24 24 24 24 25 25 25 25
25 25 25 25 25 25 25 25 25 25 25 25 25 25 25 25 25 25 25 25 25 25 25 25 24 24 24 24 24 24 24 24 24 24 24 24 25 25 25 25 25 25
25 25 25 25 25 25 25 25 25 25 25 25 25 25 25 25 25 25 25 25 25 25 25 25 25 25 24 24 24 24 24 24 24 24 24 25 25 25 25 25 25 25
24 24 24 24 25 24 25 25 25 25 25 25 25 25 25 25 25 25 25 25 25 25 25 25 25 25 25 24 24 24 24 25 24 24 24 25 25 25 25 25 25 25
24 24 24 24 24 24 25 25 25 25 25 25 25 25 25 25 25 25 25 25 25 25 25 25 25 25 25 25 25 24 24 25 25 24 24 25 25 25 25 25 25 25
24 24 24 24 24 24 24 25 25 25 25 25 25 25 25 25 25 25 26 26 26 26 25 25 25 25 25 25 25 25 25 25 25 25 25 25 25 25 25 25 25 25
24 24 24 24 24 24 24 24 24 25 25 25 25 25 25 25 25 25 26 26 26 26 26 26 25 25 25 25 25 25 25 25 25 25 25 25 25 25 25 25 25 25
23 23 24 24 24 24 24 24 24 24 25 25 25 25 25 25 25 25 26 26 26 26 26 26 26 26 25 25 25 25 25 25 25 25 25 25 25 25 25 25 25 25
23 23 23 23 24 24 24 24 24 24 24 24 25 25 25 25 25 25 26 26 26 26 26 26 26 26 26 26 26 25 25 25 25 25 25 25 25 25 25 25 25 25
23 23 23 23 23 24 24 24 24 24 24 24 24 24 24 25 25 25 26 26 26 26 26 26 26 26 26 26 26 26 26 26 26 26 26 26 25 26 26 26 26 25
21 22 23 23 23 23 23 23 23 23 24 24 24 24 24 25 25 25 25 26 26 26 26 26 26 26 26 26 26 26 26 26 26 26 26 26 26 26 26 26 26 26
19 20 21 22 22 22 22 23 23 23 23 23 24 24 24 25 25 25 25 25 26 26 26 26 26 26 26 26 26 26 26 26 26 26 26 26 26 26 26 26 26 26
20 20 20 20 21 21 21 22 22 22 23 23 23 23 24 24 24 25 25 25 26 26 26 26 26 26 27 27 27 27 26 26 26 26 26 26 26 26 26 26 26 26
20 20 20 20 20 20 20 21 21 21 21 22 22 23 23 23 24 24 25 25 25 26 26 26 26 27 27 27 27 26 26 26 26 26 26 26 26 26 26 26 26 26
19 19 19 20 20 20 20 20 20 21 21 21 21 21 22 22 23 24 24 25 25 25 26 26 26 27 27 27 27 26 26 26 26 26 26 26 26 26 26 26 26 26
19 19 19 19 19 19 19 20 20 20 20 20 21 21 21 21 22 22 23 24 24 24 25 25 25 26 26 26 26 26 26 26 26 26 26 26 26 26 26 26 26 26
19 19 19 19 19 19 19 19 19 20 20 20 20 20 20 21 21 21 22 22 23 23 24 24 24 24 24 25 25 25 25 25 25 25 26 26 26 26 26 26 26 26
19 19 19 19 19 19 19 19 19 19 19 19 19 19 19 19 20 20 21 21 22 22 22 23 23 23 23 23 24 24 25 25 25 25 25 25 26 26 26 26 26 26
19 19 19 19 19 19 19 19 19 19 19 19 19 19 19 19 19 20 20 20 21 21 21 22 22 23 23 23 23 23 23 24 24 25 25 25 25 25 25 25 26 26
18 19 19 19 19 19 19 19 19 19 19 19 19 19 19 19 19 20 20 20 20 20 20 20 21 22 22 23 23 23 22 23 23 24 24 24 24 25 25 25 25 25
18 18 18 18 19 19 19 19 19 19 20 20 20 19 19 19 19 19 19 19 19 19 19 19 20 21 21 22 22 22 22 22 22 22 22 23 23 23 23 23 23 24
17 18 18 18 18 18 18 19 19 19 20 20 20 20 20 20 20 20 20 20 20 20 19 20 20 21 21 21 21 21 22 21 21 21 21 22 22 22 22 22 23 23
Height
855 856 857 858 859 860 861 862 863 863 864 865 865 866 867 867 868 869 869 870 871 871 871 872 873 873 874 875 875 875 876 876 877 877 877 878 878 878 878 879 879 879
854 855 856 857 858 860 861 862 863 863 864 864 865 866 866 867 868 869 869 870 870 871 871 871 872 872 873 874 874 875 875 876 876 877 877 877 878 878 878 878 878 879
852 854 855 856 857 859 860 861 862 863 863 864 865 865 866 867 867 868 869 869 870 870 870 871 871 872 872 873 874 874 874 875 875 876 876 876 877 877 877 877 878 878
850 852 853 855 857 858 860 861 861 862 863 863 864 865 865 866 867 867 868 868 869 869 870 870 871 871 871 872 872 873 873 874 875 875 875 875 876 876 876 877 877 877
849 851 852 854 855 857 858 859 860 861 861 862 863 864 864 865 866 866 867 867 867 868 869 869 870 870 871 871 871 872 872 873 873 874 874 874 875 875 875 876 876 876
848 849 850 852 853 854 855 856 857 859 859 861 862 863 863 863 864 865 865 866 866 867 867 868 868 869 870 870 870 871 871 872 872 873 873 873 874 874 874 875 875 875
847 848 849 850 851 851 853 853 855 857 858 860 860 862 862 862 863 863 864 865 865 866 866 866 867 867 868 869 869 870 870 871 871 872 872 872 873 873 873 874 874 874
845 846 847 849 849 851 852 853 854 855 857 858 859 860 861 862 862 862 863 864 864 865 865 866 866 866 867 868 868 869 869 869 870 871 871 871 872 872 872 873 873 873
842 844 845 846 848 849 851 852 853 854 855 857 857 859 860 860 861 861 862 863 863 864 864 865 866 866 866 866 867 867 868 868 869 869 870 871 871 871 872 872 872 872
840 841 843 844 846 847 849 850 851 852 854 855 856 857 858 859 860 860 861 861 862 862 863 864 864 865 865 865 866 866 867 867 868 868 869 869 870 870 871 871 871 871
839 840 841 842 844 845 847 848 850 851 852 853 854 855 856 857 858 859 859 860 860 861 861 862 863 863 864 864 864 865 866 866 866 867 868 868 869 869 870 870 870 870
837 838 840 841 843 844 845 847 848 850 851 851 852 853 854 855 856 857 858 858 859 859 860 860 861 862 862 862 863 864 864 865 865 865 866 866 867 868 868 869 869 869
836 837 838 840 842 843 844 846 847 848 849 850 851 852 853 854 854 855 856 856 857 857 858 859 859 860 860 861 861 862 863 863 863 864 864 864 865 866 866 867 867 867
835 837 838 840 841 842 843 844 845 846 847 848 849 850 851 852 853 854 854 854 855 855 856 857 857 858 859 859 860 860 861 861 861 862 862 862 863 864 864 865 865 866
837 837 838 839 840 841 842 843 843 844 846 847 848 848 849 850 851 852 852 852 853 853 854 855 855 856 856 857 858 858 859 859 860 860 860 860 861 861 862 863 863 863
840 840 838 838 839 840 841 841 842 843 844 845 846 847 847 848 849 849 850 850 850 851 851 852 853 853 854 855 856 856 857 857 858 858 859 859 859 859 860 860 861 861
839 841 840 838 838 839 839 840 841 841 842 843 844 845 845 846 846 847 847 847 848 848 849 849 850 851 852 853 854 854 855 855 856 857 857 857 857 857 858 858 858 859
837 839 840 839 838 839 839 839 839 840 841 842 842 843 844 844 844 845 845 845 845 845 846 846 847 848 849 851 851 852 853 854 854 855 855 855 855 855 855 855 856 856
837 839 839 838 838 839 839 839 838 838 840 841 842 842 842 842 843 843 843 843 843 843 844 844 845 846 847 848 849 850 851 851 852 852 852 853 853 853 853 853 853 853
839 839 839 838 839 839 839 839 839 838 837 839 841 842 842 842 842 841 841 842 842 842 842 842 843 844 845 846 847 848 849 849 849 850 850 850 850 851 851 850 851 851
838 839 839 839 840 840 839 839 839 838 837 837 840 842 842 842 842 841 841 841 841 841 841 841 842 843 844 845 846 847 847 847 847 848 848 848 848 848 848 848 848 848
838 838 839 839 840 840 839 839 840 839 837 837 840 842 842 842 842 842 842 841 840 840 840 840 841 841 842 843 845 846 846 846 846 846 846 846 846 846 846 846 846 846
839 838 839 840 840 840 840 840 840 840 838 837 840 843 843 842 842 842 842 841 840 839 839 839 839 839 840 841 843 845 845 846 845 845 845 844 844 844 845 844 845 844
840 839 839 840 840 840 840 840 840 840 839 839 841 843 843 843 842 842 842 842 840 839 838 838 838 838 838 838 839 842 844 846 846 844 844 843 843 843 843 842 842 842
840 840 840 840 841 840 840 840 840 840 839 840 841 841 841 842 842 842 842 841 840 838 838 838 837 837 837 837 837 838 840 844 846 845 843 842 841 841 841 840 840 840
841 841 841 841 841 841 841 841 841 840 840 840 840 839 839 839 839 839 839 839 838 837 838 839 837 836 836 837 837 837 837 842 846 845 842 841 840 839 838 837 837 837
Wind_Speed
19 20 21 19 18 18 18 17 16 15 16 17 18 17 15 13 12 12 12 12 11 10 9 10 10 9 9 9 9 9 8 7 6 6 6 6 6 6 7 6 6 7
21 20 20 19 18 18 18 17 16 15 14 16 17 16 15 14 12 12 12 12 11 10 10 10 9 9 9 9 10 10 9 8 7 7 7 6 5 6 6 6 6 7
23 21 20 19 18 18 17 17 17 16 14 15 16 15 14 14 13 13 12 12 12 11 10 11 10 9 9 9 10 10 10 9 8 8 8 7 7 8 7 6 7 7
25 23 22 20 18 17 17 17 18 17 16 16 16 15 14 14 14 14 13 13 13 12 11 12 11 10 9 10 11 11 11 10 9 9 9 9 9 9 8 7 7 7
26 25 23 22 19 16 16 17 18 19 18 18 17 16 16 15 15 15 15 15 15 14 13 13 13 12 11 10 11 12 11 11 10 10 10 10 10 10 9 9 8 8
26 25 24 24 22 19 17 17 18 18 19 18 17 17 17 17 16 16 17 16 16 15 15 15 14 13 12 11 11 12 12 12 10 10 11 11 11 10 10 10 10 9
25 24 24 24 24 22 19 18 18 17 18 18 17 17 18 18 18 17 17 17 17 17 17 16 15 14 13 13 12 12 12 12 11 10 11 11 11 11 11 10 10 10
24 23 23 23 23 22 20 19 18 18 17 17 18 18 18 18 19 18 18 18 18 19 18 17 16 15 14 14 14 13 12 12 12 11 11 11 11 11 11 10 10 11
25 24 24 23 23 23 22 20 20 19 19 19 19 18 18 18 19 19 19 19 19 19 19 19 18 17 16 16 16 15 14 13 13 12 12 12 12 13 11 10 10 11
26 25 25 25 24 23 23 22 21 21 21 21 20 20 20 20 20 19 20 20 20 19 20 20 19 18 17 17 17 17 16 15 14 14 14 13 14 14 13 12 12 12
25 24 25 25 25 24 23 22 21 21 21 21 22 22 23 22 21 20 20 21 21 21 20 21 20 19 19 19 18 18 18 17 16 16 15 15 15 15 14 14 14 14
25 24 23 23 24 24 23 21 20 20 21 21 21 22 23 24 23 23 22 22 22 22 21 21 21 21 20 20 19 19 19 19 19 18 17 17 16 16 15 15 15 16
25 25 23 22 21 21 21 20 20 20 20 19 18 18 20 22 23 24 24 23 23 23 23 22 22 23 23 22 21 20 20 20 21 21 20 19 18 17 17 17 17 17
21 21 20 19 19 19 19 19 21 21 20 19 18 16 17 18 19 21 22 23 24 24 24 24 24 25 25 24 23 22 22 22 22 22 22 22 21 20 19 18 18 18
15 17 16 15 15 14 15 16 18 19 19 19 19 19 19 18 18 19 20 22 23 24 25 26 27 28 27 26 25 24 24 24 23 23 22 22 22 22 21 20 19 19
11 13 13 13 12 11 11 12 14 16 17 17 18 19 20 21 21 20 20 22 23 23 23 25 28 29 29 27 26 26 26 25 25 24 23 23 23 23 23 23 22 21
6 8 8 8 8 9 9 9 10 12 14 16 16 17 19 21 21 20 20 21 23 24 24 24 27 29 29 29 28 27 27 27 26 26 24 24 24 24 24 25 24 24
8 6 4 4 4 5 5 5 6 7 9 11 13 15 17 18 19 19 18 18 19 22 23 24 25 26 27 29 29 29 29 28 28 27 27 26 26 26 26 26 26 27
11 9 7 7 5 3 3 4 5 4 4 6 8 10 12 14 16 16 16 16 16 17 19 22 24 25 25 27 28 29 29 28 28 28 28 28 28 28 28 28 28 28
11 10 9 8 7 5 3 2 3 3 2 1 4 6 7 8 10 11 12 12 13 13 13 15 17 19 22 24 25 27 28 27 27 27 28 29 29 29 29 29 29 29
12 12 12 11 9 8 6 4 3 2 2 1 2 3 3 2 3 5 7 8 9 9 9 9 9 10 12 15 18 21 23 24 25 26 27 28 29 29 29 30 30 30
12 12 13 12 11 11 10 8 6 5 4 3 5 6 5 4 2 2 3 4 5 6 6 6 5 4 5 7 10 14 17 19 21 22 24 26 27 28 28 28 29 29
13 13 13 13 12 11 11 10 9 8 7 7 7 8 7 7 7 6 6 6 5 3 3 3 3 4 4 4 7 10 13 16 18 19 21 22 23 24 24 24 25 26
13 13 12 12 12 12 11 10 9 9 9 8 8 8 6 5 6 8 9 9 8 5 4 6 5 4 5 5 4 8 12 16 17 17 18 20 21 21 21 21 22 23
12 12 12 12 12 12 11 11 10 10 10 9 8 8 7 5 5 5 7 8 8 5 6 8 8 7 7 6 4 5 11 15 18 17 17 18 18 18 18 18 18 18
12 12 12 12 12 12 11 11 10 10 10 10 10 10 10 8 8 7 8 8 7 6 6 8 9 9 9 8 6 6 9 15 18 18 17 17 17 17 17 17 17 17
Wind_Direction
217 212 210 213 216 218 219 224 230 235 240 237 229 228 231 235 237 240 244 245 240 238 234 227 226 231 239 244 243 242 248 250 252 265 267 263 268 273 272 275 291 309
216 214 213 215 217 220 224 231 237 242 243 237 230 230 234 237 239 242 246 246 241 237 233 225 222 227 236 243 244 245 250 251 251 256 256 256 265 274 277 279 288 303
217 216 215 216 219 223 228 236 241 241 239 233 229 231 235 238 243 244 246 247 241 236 235 232 230 232 236 238 239 243 246 245 245 252 257 261 268 273 274 278 283 294
218 220 219 218 220 225 232 239 241 236 233 232 232 233 235 240 244 244 245 246 242 238 240 241 239 238 238 235 235 237 240 240 240 246 257 260 264 268 269 272 277 283
220 223 223 221 221 225 231 236 236 233 233 234 235 236 236 238 243 243 243 243 241 241 243 244 242 240 238 237 235 235 235 236 237 243 253 256 255 259 261 267 273 275
221 225 225 221 219 221 224 228 230 232 235 236 237 240 238 237 241 244 244 242 242 243 243 243 243 240 238 238 239 239 237 236 236 241 250 252 250 252 255 262 267 267
222 225 225 223 222 224 226 226 228 232 235 236 239 242 241 239 241 245 246 245 245 246 245 242 242 240 238 238 240 243 244 242 240 241 246 250 250 249 249 254 260 260
220 222 223 224 226 230 232 232 232 235 237 238 240 244 244 241 241 245 247 248 248 248 247 244 243 243 240 240 242 243 245 246 246 246 246 248 249 248 246 247 252 254
218 221 222 223 226 229 232 233 235 238 240 241 242 244 245 244 245 248 249 250 250 249 248 245 245 247 246 246 247 246 246 247 248 249 250 250 248 248 250 252 252 251
216 219 220 221 224 228 230 232 234 237 240 243 243 244 245 247 250 252 250 250 250 249 248 246 246 248 249 250 250 250 250 252 252 252 254 255 253 253 256 258 260 257
213 215 218 220 221 225 228 230 231 235 239 242 244 245 247 248 249 251 251 251 251 251 250 247 247 248 250 251 252 251 252 256 258 256 256 258 259 262 262 260 262 265
212 214 216 219 222 224 225 227 229 232 236 241 245 248 249 249 248 249 250 250 252 253 252 249 246 247 249 252 254 254 253 255 259 260 260 260 261 265 268 266 265 268
215 218 219 220 224 226 226 227 228 230 233 236 241 246 249 249 249 250 251 250 251 252 251 250 247 246 248 251 253 254 254 254 257 260 261 261 261 264 267 268 269 271
216 220 223 224 227 230 231 232 231 232 234 235 238 241 245 247 248 250 252 252 253 253 252 251 249 248 248 249 251 253 253 254 256 259 260 261 261 263 265 267 269 271
227 221 218 221 225 229 232 234 234 235 238 240 241 243 246 247 247 249 251 251 253 254 253 251 250 250 251 251 252 252 252 254 256 257 258 259 260 262 263 265 267 270
248 238 227 224 227 231 233 235 235 237 241 245 246 246 246 246 246 249 252 252 252 253 254 253 250 251 253 254 255 255 255 255 256 257 258 258 260 262 262 263 265 267
223 240 236 227 227 232 234 236 238 240 242 244 245 245 245 244 243 247 252 255 254 252 254 253 251 252 254 255 256 256 256 256 258 260 260 259 261 263 264 265 265 267
159 181 181 163 177 197 200 205 222 236 242 244 243 242 241 242 242 244 249 254 253 250 251 252 252 253 254 256 256 256 255 256 258 260 261 261 263 265 267 268 268 269
126 133 123 110 109 125 146 158 168 189 228 254 256 246 239 240 242 243 246 250 251 249 249 250 253 254 255 256 256 256 256 256 258 259 260 261 264 266 268 270 271 273
101 99 91 81 71 65 65 78 101 120 143 230 276 258 243 243 246 245 246 246 247 248 247 247 251 254 255 256 256 257 258 259 259 260 260 261 263 264 267 270 272 274
76 73 71 65 57 51 51 47 33 41 97 102 319 284 247 247 257 253 253 249 247 249 249 247 249 254 257 258 256 256 257 259 260 261 261 261 262 263 265 269 272 273
62 64 62 57 53 50 49 47 28 11 22 16 338 312 287 286 304 308 297 277 257 254 257 253 251 258 269 272 269 262 258 258 259 260 261 262 263 264 266 270 273 274
56 59 55 49 47 45 41 37 27 15 16 13 352 333 314 295 286 287 295 297 291 285 291 287 262 248 260 284 296 292 280 270 265 264 265 266 267 269 271 273 275 276
52 52 48 40 35 32 28 23 21 18 14 7 348 337 336 318 296 284 280 284 286 294 329 329 303 269 257 255 280 307 305 296 285 276 274 274 274 275 276 277 278 279
45 41 38 33 27 24 21 15 14 13 10 6 356 346 344 338 322 304 293 293 292 302 335 336 326 313 291 273 281 318 316 310 301 290 284 284 284 285 284 284 284 285
39 35 32 31 27 25 24 20 15 10 6 5 6 4 360 354 346 335 326 326 329 339 346 340 337 334 320 306 314 324 313 306 299 294 294 295 294 294 294 294 295 293